Location: ??????????
(31.2156°N, 29.9553°E)
Time: 04:46:59
(UTC+00:00)

Cosmos 2237 - Pass Details

Date: 03 March 2021
Orbit: 845 x 857 km, 70.9° (Epoch: 14 April)

Event Time Altitude Azimuth Distance (km) Brightness Sun altitude
Rises 16:19:49 0° 191° (S) 3,400 7.6 -5.1°
Reaches altitude 10° 16:22:16 10° 188° (S) 2,469 6.8 -5.6°
Maximum altitude 16:27:53 66° 107° (ESE) 930 4.2 -6.8°
Drops below altitude 10° 16:33:33 10° 27° (NNE) 2,489 6.4 -8.0°
Sets 16:36:01 0° 24° (NNE) 3,429 7.1 -8.5°
